Lexington Weather

Lexington, Massachusetts, USA

44°F
5/12/2021 4:38am 
  • Lexington Conditions: Clear
  • Temperature: 44.4°F / 6.9°CColder 0.4°F than last hour.
  • Dew Point: 33.4°FIncreased 0.9°Fsince last hour.
  • Relative Humidity: 65%Increased 3.0% since last hour.
  • Wind: Wind from NW NW 1 mph, 10-min avg: 1 mph, gust: 7 mph
  • Barometer: 29.92 in Steady
  • Visibility: 10 miles
  • Rain Today: 0.00 in
  •   

Regional Weather Roundup
for Boston / Norton, MA

        
000
ASUS41 KBOX 070904
RWRBOX

REGIONAL WEATHER ROUNDUP
NATIONAL WEATHER SERVICE BOSTON/NORTON MA
500 AM EDT FRI MAY 07 2021

NOTE:  "FAIR" INDICATES FEW OR NO CLOUDS BELOW 12,000 FEET WITH NO 
SIGNIFICANT WEATHER AND/OR OBSTRUCTIONS TO VISIBILITY.

MAZALL-071000-
EASTERN MASSACHUSETTS
  
CITY           SKY/WX    TMP DP  RH WIND       PRES   REMARKS
BOSTON         MOCLDY    50  32  50 N6        29.97R                  
BEVERLY        MOCLDY    40  35  83 N3        29.96R                  
LAWRENCE       MOCLDY    43  33  68 CALM      29.98R                  
BEDFORD        MOCLDY    41  37  86 CALM      29.96R                  
BLUE HILL        N/A     45  30  55 N10       29.94R                  
NORWOOD        MOCLDY    41  37  86 CALM      29.96R                  
MARSHFIELD     PTCLDY    43  41  93 CALM      29.95S                  
PLYMOUTH       PTCLDY    42  35  76 NE3       29.94R                  
TAUNTON        PTCLDY    37  35  92 CALM      29.95R                  
NEW BEDFORD    PTCLDY    46  36  68 N5        29.94R                  
$$

MAZALL-071000-
CAPE COD AND THE ISLANDS
  
CITY           SKY/WX    TMP DP  RH WIND       PRES   REMARKS
FALMOUTH       CLOUDY    45  41  87 NE6       29.94S                  
HYANNIS        MOCLDY    42  40  92 CALM      29.93S                  
CHATHAM        MOCLDY    47  43  86 E3        29.95S                  
PROVINCETOWN   PTCLDY    44  41  89 E7        29.96R                  
NANTUCKET      MOCLDY    44  43  96 E5        29.93S                  
MARTHAS VNYRD  PTCLDY    38  35  89 CALM      29.93R                  
$$
 
MAZALL-071000-
CENTRAL AND WESTERN MASSACHUSETTS
  
CITY           SKY/WX    TMP DP  RH WIND       PRES   REMARKS
WORCESTER      MOCLDY    47  24  40 N7        29.95S                  
FITCHBURG      PTCLDY    42  33  70 CALM      29.97R                  
ORANGE         PTCLDY    40  38  93 NW3       29.98R                  
SPRINGFIELD    CLOUDY    38  38  98 CALM      29.95S                  
WESTFIELD      MOCLDY    41  36  82 N3        29.96S                  
NORTH ADAMS    PTCLDY    34  32  92 CALM      29.98R                  
PITTSFIELD     PTCLDY    38  31  76 CALM      29.94R                  
$$
 
RIZALL-071000-
RHODE ISLAND
  
CITY           SKY/WX    TMP DP  RH WIND       PRES   REMARKS
PROVIDENCE     PTCLDY    48  32  53 N7        29.95R                  
NEWPORT        CLEAR     48  33  56 N9        29.93R                  
BLOCK ISLAND   CLOUDY    48  42  80 E7        29.93R                  
SMITHFIELD       N/A     44  32  62 NE3       29.95S                  
WESTERLY       CLEAR     47  31  53 NE6       29.93R                  
$$
 
CTZALL-071000-
CONNECTICUT
  
CITY           SKY/WX    TMP DP  RH WIND       PRES   REMARKS
BRADLEY INTL   PTCLDY    42  33  70 N5        29.95S                  
HARTFORD       CLEAR     45  35  68 NE3       29.95S                  
BRIDGEPORT     CLEAR     50  34  54 NE7       29.93S                  
DANBURY        PTCLDY    39  34  82 CALM      29.95R                  
GROTON         CLEAR     49  32  52 N8        29.92R                  
NEW HAVEN      CLEAR     49  34  56 N9        29.93S                  
CHESTER        FAIR      46  28  49 N3        29.93S                  
MERIDEN        CLEAR     44  34  67 CALM      29.95S                  
WILLIMANTIC    CLEAR     43  34  70 NE3       29.95S                  
OXFORD         CLEAR     48  29  47 NE13      29.94S                  
$$

MEZ002-015-021-024-NHZ003-005-008-011-012-014-VTZ005-008-071000-
NORTHERN NEW ENGLAND
  
CITY           SKY/WX    TMP DP  RH WIND       PRES   REMARKS
PORTLAND ME    MOCLDY    37  33  85 NW3       29.99R                  
BANGOR ME      PTCLDY    37  29  72 W6        29.96R                  
CONCORD NH     PTCLDY    36  32  85 CALM      29.97S                  
MANCHESTER NH  MOCLDY    47  33  58 N3        29.96R                  
NASHUA NH      PTCLDY    43  39  86 W3        29.98R                  
PORTSMOUTH NH  MOCLDY    43  33  67 CALM      29.98R                  
JAFFREY NH     PTCLDY    37  33  85 CALM      29.96S                  
KEENE NH       PTCLDY    36  35  96 CALM      29.98S                  
BURLINGTON VT  CLEAR     35  30  82 E3        29.98S                  
MT. WASHINGTON PTCLDY    19  16  86 NW20        N/A  WCI   4          
$$

NYZ052-076-071000-
EASTERN NEW YORK
  
CITY           SKY/WX    TMP DP  RH WIND       PRES   REMARKS
ALBANY         CLEAR     34  32  92 CALM      29.98R                  
NEW YORK CITY  MOCLDY    52  29  41 N8        29.92F                  
$$
 
ANZALL-071000-
MARINE OBSERVATIONS
  
STATION/POSITION TIME  TEMP    WIND        PRES    VSBY  WAVE
                       AIR SEA DIR/SP/G                  HT/PER
                 (UTC) (F)     (DEG/KT/KT) (MB)    (MI)  (FT/S)
BOSTON BUOY      0840   48 48   20/  8/  8 1014.5R
BUZZARDS BAY     0800           30/ 11/ 11 1014.3R
NANTUCKET SOUND  0840      51                N/A
MASS BAY-STELLWA NOT AVBL
ISLE OF SHOALS   0800   49      CALM  /  1 1014.2R
S OF BLOCK IS    0826      49                N/A           2/ 9
$$

......................KEY.........................
  SKY/WX - SKY CONDITION/PRESENT WEATHER
  TMP    - TEMPERATURE IN FAHRENHEIT
  DWPT   - DEWPOINT IN FAHRENHEIT
  RH     - RELATIVE HUMIDITY IN PERCENT
  WIND   - DIRECTION AND SPEED IN MPH
  PRES   - MEAN SEA LEVEL PRESSURE IN INCHES OF HG
  WCI    - WIND CHILL INDEX
  VSB    - VISIBILITY IN MILES
  HX     - HEAT INDEX
  TC     - TEMPERATURE IN CELSIUS
  VRB    - VARIABLE WIND DIRECTION
  N/A    - NOT AVAILABLE
  
      

Other recent Regional Weather Roundups

Wed May 12, 4:04am

Wed May 12, 3:04am

Wed May 12, 2:04am

Wed May 12, 1:04am

Wed May 12, 12:05am

Tue May 11, 11:05pm

Tue May 11, 10:04pm

Tue May 11, 9:05pm

Tue May 11, 8:05pm

Tue May 11, 7:04pm

Tue May 11, 6:04pm

Tue May 11, 5:04pm

Tue May 11, 4:05pm

Tue May 11, 3:04pm

Tue May 11, 2:05pm

Tue May 11, 1:04pm

Tue May 11, 12:05pm

Tue May 11, 11:05am

Tue May 11, 10:04am

Tue May 11, 9:04am

Tue May 11, 8:04am

Tue May 11, 7:05am

Tue May 11, 6:04am

Tue May 11, 5:04am

Tue May 11, 4:04am

Tue May 11, 3:04am

Tue May 11, 2:04am

Tue May 11, 1:04am

Tue May 11, 12:04am

Mon May 10, 11:04pm

Mon May 10, 10:04pm

Mon May 10, 9:05pm

Mon May 10, 8:04pm

Mon May 10, 7:05pm

Mon May 10, 6:04pm

Mon May 10, 5:04pm

Mon May 10, 4:04pm

Mon May 10, 3:04pm

Mon May 10, 2:04pm

Mon May 10, 1:04pm

Mon May 10, 12:04pm

Mon May 10, 11:05am

Mon May 10, 10:04am

Mon May 10, 9:04am

Mon May 10, 8:04am

Mon May 10, 7:04am

Mon May 10, 6:04am

Mon May 10, 5:05am

Mon May 10, 4:04am

Mon May 10, 3:04am

Mon May 10, 2:04am

Mon May 10, 1:04am

Mon May 10, 12:04am

Sun May 9, 11:04pm

Sun May 9, 10:04pm

Sun May 9, 9:04pm

Sun May 9, 8:04pm

Sun May 9, 7:05pm

Sun May 9, 6:04pm

Sun May 9, 5:04pm

Sun May 9, 4:04pm

Sun May 9, 3:04pm

Sun May 9, 2:04pm

Sun May 9, 1:05pm

Sun May 9, 12:04pm

Sun May 9, 11:05am

Sun May 9, 10:04am

Sun May 9, 9:04am

Sun May 9, 8:04am

Sun May 9, 7:04am

Sun May 9, 6:04am

Sun May 9, 5:04am

Sun May 9, 4:04am

Sun May 9, 3:04am

Sun May 9, 2:04am

Sun May 9, 1:05am

Sun May 9, 12:04am

Sat May 8, 11:05pm

Sat May 8, 10:04pm

Sat May 8, 9:05pm

Sat May 8, 8:04pm

Sat May 8, 7:04pm

Sat May 8, 6:04pm

Sat May 8, 5:05pm

Sat May 8, 4:04pm

Sat May 8, 3:05pm

Sat May 8, 2:05pm

Sat May 8, 1:05pm

Sat May 8, 12:04pm

Sat May 8, 11:05am

Sat May 8, 10:04am

Sat May 8, 9:04am

Sat May 8, 8:04am

Sat May 8, 7:04am

Sat May 8, 6:04am

Sat May 8, 5:04am

Sat May 8, 4:04am

Sat May 8, 3:04am

Sat May 8, 2:04am

Sat May 8, 1:05am

Sat May 8, 12:04am

Fri May 7, 11:04pm

Fri May 7, 10:05pm

Fri May 7, 9:04pm

Fri May 7, 8:04pm

Fri May 7, 7:05pm

Fri May 7, 6:04pm

Fri May 7, 5:05pm

Fri May 7, 4:04pm

Fri May 7, 3:04pm

Fri May 7, 2:05pm

Fri May 7, 1:04pm

Fri May 7, 12:04pm

Fri May 7, 11:05am

Fri May 7, 10:04am

Fri May 7, 9:04am

Fri May 7, 8:05am

Fri May 7, 7:04am

Fri May 7, 6:04am

Fri May 7, 4:04am

Fri May 7, 3:04am

Fri May 7, 2:05am

Fri May 7, 1:04am

Fri May 7, 12:05am

Thu May 6, 11:04pm

Thu May 6, 10:04pm

Thu May 6, 9:05pm

Thu May 6, 8:04pm

Thu May 6, 7:04pm

Thu May 6, 6:04pm

Thu May 6, 5:05pm

Thu May 6, 4:04pm

Thu May 6, 3:04pm

Thu May 6, 2:05pm

Thu May 6, 1:04pm

Thu May 6, 12:04pm

Thu May 6, 11:04am

Thu May 6, 10:04am

Thu May 6, 9:04am

Thu May 6, 8:04am

Thu May 6, 7:04am

Thu May 6, 6:04am

Thu May 6, 5:04am

Thu May 6, 4:04am

Thu May 6, 3:04am

Thu May 6, 2:05am

Thu May 6, 1:04am

Thu May 6, 12:05am

Wed May 5, 11:04pm

Wed May 5, 10:04pm

Wed May 5, 9:05pm

Wed May 5, 8:04pm

Wed May 5, 7:05pm

Wed May 5, 6:04pm

Wed May 5, 5:04pm

Wed May 5, 4:04pm

Wed May 5, 3:04pm

Wed May 5, 2:05pm

Wed May 5, 1:05pm

Wed May 5, 12:04pm

Wed May 5, 11:05am

Wed May 5, 10:04am

Wed May 5, 9:04am

Wed May 5, 8:04am

Wed May 5, 7:04am

Wed May 5, 6:05am

Wed May 5, 5:04am

Meta data:

ID: 2e21da0b-128f-4987-8458-43ea0615955e
Link: https://api.weather.gov/products/2e21da0b-128f-4987-8458-43ea0615955e